SBONWEB Weather Reports


Display with metric or nautical units.
time (UTC)temp
F
wind
direction
speed
MPH
gust
MPH
rain 1hr
in
rain 24hr
in
rain mn
in
humidity
%
barometer
mb
20260903065403 73 359 5.0 8.0 0.00 0.00 0.00 59 1021.0
20260903064503 73 357 4.0 8.0 0.00 0.00 0.00 59 1021.1
20260903063603 73 3 5.0 7.0 0.00 0.00 0.00 61 1021.0
20260903062917 72 351 5.0 9.0 0.00 0.00 0.00 60 1020.9
20260903061804 72 349 5.0 8.0 0.00 0.00 0.00 62 1021.0
20260903060903 71 348 5.0 9.0 0.00 0.00 0.00 61 1020.7
20260903060004 71 349 5.0 9.0 0.00 0.00 0.00 62 1020.8
20260903055403 70 358 5.0 8.0 0.00 0.00 0.00 63 1020.7
20260903054503 70 352 5.0 9.0 0.00 0.00 0.00 65 1020.5
20260903053603 70 6 5.0 10.0 0.00 0.00 0.00 66 1020.4
20260903052703 69 352 4.0 9.0 0.00 0.00 0.00 66 1020.5
20260903051803 69 348 4.0 7.0 0.00 0.00 0.00 67 1020.4
20260903050904 68 330 3.0 7.0 0.00 0.00 0.00 68 1020.4
20260903050003 68 341 2.0 6.0 0.00 0.00 0.00 69 1020.3
20260903045618 68 359 2.0 6.0 0.00 0.00 0.00 69 1020.3
20260903044503 68 360 2.0 5.0 0.00 0.00 0.00 69 1020.1
20260903043603 68 16 2.0 3.0 0.00 0.00 0.00 69 1019.9
20260903042703 68 8 2.0 3.0 0.00 0.00 0.00 70 1020.0
20260903042018 68 5 3.0 4.0 0.00 0.00 0.00 70 1019.8
20260903041117 68 333 1.0 5.0 0.00 0.00 0.00 70 1019.8
20260903040003 68 282 2.0 4.0 0.00 0.00 0.00 70 1019.7
20260903035403 68 319 1.0 5.0 0.00 0.00 0.00 70 1019.7
20260903034503 68 315 2.0 4.0 0.00 0.00 0.00 70 1019.7
20260903033604 69 10 3.0 4.0 0.00 0.00 0.00 69 1019.8
20260903032703 69 6 2.0 4.0 0.00 0.00 0.00 68 1019.6
20260903031803 68 12 2.0 4.0 0.00 0.00 0.00 70 1019.6
20260903030903 68 21 1.0 4.0 0.00 0.00 0.00 72 1019.5
20260903030003 68 264 1.0 2.0 0.00 0.00 0.00 72 1019.5
20260903025404 69 234 1.0 2.0 0.00 0.00 0.00 71 1019.4
20260903024503 70 319 3.0 3.0 0.00 0.00 0.00 69 1019.5
20260903023604 71 6 4.0 8.0 0.00 0.00 0.00 66 1019.5
20260903022703 71 2 4.0 8.0 0.00 0.00 0.00 66 1019.5
20260903021803 71 350 4.0 9.0 0.00 0.00 0.00 67 1019.6
20260903020903 71 340 5.0 9.0 0.00 0.00 0.00 69 1019.5
20260903015404 70 259 1.0 8.0 0.00 0.00 0.00 73 1019.6
20260903014503 70 229 3.0 5.0 0.00 0.00 0.00 71 1019.5
20260903013603 70 339 3.0 7.0 0.00 0.00 0.00 72 1019.6
20260903012703 69 336 3.0 9.0 0.00 0.00 0.00 74 1019.6
20260903011803 68 226 2.0 4.0 0.00 0.00 0.00 77 1019.6
20260903011118 68 218 2.0 4.0 0.00 0.00 0.00 78 1019.6
20260903010003 68 206 2.0 4.0 0.00 0.00 0.00 79 1019.5
20260903005618 68 204 2.0 3.0 0.00 0.00 0.00 79 1019.6
20260903004503 68 204 1.0 3.0 0.00 0.00 0.00 78 1019.5
20260903003603 69 228 1.0 2.0 0.00 0.00 0.00 76 1019.5
20260903002703 70 301 2.0 4.0 0.00 0.00 0.00 76 1019.6
20260903001804 70 288 2.0 3.0 0.00 0.00 0.00 76 1019.5
20260903000903 70 253 1.0 4.0 0.00 0.00 0.00 76 1019.6
20260903000003 70 269 1.0 2.0 0.00 0.00 0.00 75 1019.5
20260902235403 71 220 1.0 2.0 0.00 0.00 0.00 74 1019.5
20260902234503 72 222 2.0 4.0 0.00 0.00 0.00 72 1019.5
20260902233603 72 314 2.0 8.0 0.00 0.00 0.00 71 1019.4
20260902232916 72 360 1.0 8.0 0.00 0.00 0.00 71 1019.4
20260902231804 72 227 1.0 3.0 0.00 0.00 0.00 71 1019.3
20260902230903 72 233 3.0 7.0 0.00 0.00 0.00 71 1019.4
20260902230003 72 284 3.0 9.0 0.00 0.00 0.00 71 1019.4
20260902225618 72 314 2.0 9.0 0.00 0.00 0.00 71 1019.4
20260902224503 72 247 2.0 6.0 0.00 0.00 0.00 72 1019.4
20260902223603 72 264 2.0 5.0 0.00 0.00 0.00 73 1019.4
20260902222704 72 241 2.0 7.0 0.00 0.00 0.00 73 1019.3
20260902222018 72 274 2.0 7.0 0.00 0.00 0.00 74 1019.4
20260902220903 72 247 1.0 7.0 0.00 0.00 0.00 74 1019.4
20260902220004 72 234 1.0 4.0 0.00 0.00 0.00 74 1019.4
20260902215403 72 232 1.0 4.0 0.00 0.00 0.00 75 1019.4
20260902214503 71 287 1.0 3.0 0.00 0.00 0.00 75 1019.3
20260902213604 72 231 0.0 3.0 0.00 0.00 0.00 75 1019.3
20260902212703 72 235 1.0 1.0 0.00 0.00 0.00 75 1019.2
20260902211803 72 228 1.0 2.0 0.00 0.00 0.00 76 1019.2
20260902210904 72 247 1.0 3.0 0.00 0.00 0.00 76 1019.1
20260902210003 71 248 1.0 3.0 0.00 0.00 0.00 78 1019.1
20260902205403 71 230 1.0 3.0 0.00 0.00 0.00 79 1019.1
20260902204503 71 221 0.0 2.0 0.00 0.00 0.00 78 1019.1
20260902203603 71 221 0.0 2.0 0.00 0.00 0.00 79 1018.9
20260902202703 71 221 0.0 1.0 0.00 0.00 0.00 79 1018.9
20260902201803 71 221 1.0 3.0 0.00 0.00 0.00 79 1018.9
20260902200904 72 221 1.0 2.0 0.00 0.00 0.00 78 1018.8
20260902200003 73 338 1.0 4.0 0.00 0.00 0.00 77 1018.8
20260902195403 73 3 1.0 4.0 0.00 0.00 0.00 76 1018.9
20260902194503 72 307 1.0 3.0 0.00 0.00 0.00 78 1018.8
20260902193604 72 0 0.0 0.0 0.00 0.00 0.00 79 1018.8
20260902192703 72 0 0.0 0.0 0.00 0.00 0.00 78 1018.8
20260902191803 73 238 1.0 2.0 0.00 0.00 0.00 77 1018.7
20260902190904 73 232 1.0 2.0 0.00 0.00 0.00 77 1018.7
20260902190003 73 223 1.0 2.0 0.00 0.00 0.00 77 1018.6
20260902185403 73 223 0.0 2.0 0.00 0.00 0.00 76 1018.4
20260902184503 74 0 0.0 0.0 0.00 0.00 0.00 75 1018.3
20260902183604 74 0 0.0 0.0 0.00 0.00 0.00 75 1018.4
20260902182703 75 0 0.0 0.0 0.00 0.00 0.00 73 1018.3
20260902181803 76 0 1.0 0.0 0.00 0.00 0.00 72 1018.0
20260902180903 76 200 1.0 2.0 0.00 0.00 0.00 70 1018.0
20260902180005 77 200 1.0 3.0 0.00 0.00 0.00 69 1018.0
20260902175403 78 196 1.0 2.0 0.00 0.00 0.00 68 1018.0
20260902174718 79 188 1.0 2.0 0.00 0.00 0.00 68 1017.9
20260902173603 80 188 0.0 2.0 0.00 0.00 0.00 66 1017.8
20260902172703 81 179 0.0 1.0 0.00 0.00 0.00 66 1017.9
20260902171804 82 167 0.0 3.0 0.00 0.00 0.00 64 1017.9
20260902170903 83 166 0.0 1.0 0.00 0.00 0.00 60 1017.9
20260902170003 83 158 1.0 4.0 0.00 0.00 0.00 57 1017.9
20260902165403 83 168 1.0 4.0 0.00 0.00 0.00 56 1017.9
20260902164717 84 188 1.0 2.0 0.00 0.00 0.00 53 1017.9
20260902163819 84 206 1.0 3.0 0.00 0.00 0.00 57 1017.9
20260902162703 83 203 2.0 5.0 0.00 0.00 0.00 54 1017.8
20260902161803 83 195 2.0 6.0 0.00 0.00 0.00 54 1017.8
20260902160903 84 180 1.0 4.0 0.00 0.00 0.00 54 1017.9
20260902160006 84 149 2.0 5.0 0.00 0.00 0.00 55 1017.9
20260902155403 84 182 2.0 5.0 0.00 0.00 0.00 54 1017.9
20260902154503 84 178 2.0 5.0 0.00 0.00 0.00 53 1018.0
20260902153604 84 189 2.0 5.0 0.00 0.00 0.00 55 1018.2
20260902152703 83 203 1.0 5.0 0.00 0.00 0.00 57 1018.2
20260902151803 84 156 1.0 3.0 0.00 0.00 0.00 54 1018.2
20260902150904 84 170 2.0 3.0 0.00 0.00 0.00 54 1018.2
20260902150003 84 188 2.0 8.0 0.00 0.00 0.00 52 1018.3
20260902145403 85 158 1.0 5.0 0.00 0.00 0.00 52 1018.4
20260902144503 84 162 1.0 4.0 0.00 0.00 0.00 52 1018.4
20260902143604 84 164 2.0 5.0 0.00 0.00 0.00 53 1018.4
20260902142705 85 152 2.0 7.0 0.00 0.00 0.00 51 1018.4
20260902141803 84 177 3.0 7.0 0.00 0.00 0.00 50 1018.4
20260902141118 84 169 2.0 7.0 0.00 0.00 0.00 53 1018.5
20260902140217 84 132 3.0 8.0 0.00 0.00 0.00 52 1018.6
20260902135404 84 171 2.0 8.0 0.00 0.00 0.00 54 1018.6
20260902134503 84 161 3.0 5.0 0.00 0.00 0.00 54 1018.6
20260902133604 83 131 4.0 9.0 0.00 0.00 0.00 55 1018.8
20260902132703 83 108 4.0 9.0 0.00 0.00 0.00 54 1018.7
20260902131803 84 143 4.0 7.0 0.00 0.00 0.00 56 1018.8
20260902130903 83 106 4.0 9.0 0.00 0.00 0.00 55 1019.0
20260902130003 83 120 2.0 8.0 0.00 0.00 0.00 55 1019.3
20260902125403 84 121 2.0 5.0 0.00 0.00 0.00 53 1019.3
20260902124503 84 170 2.0 6.0 0.00 0.00 0.00 57 1019.4
20260902123604 83 203 3.0 5.0 0.00 0.00 0.00 58 1019.4
20260902122703 83 154 2.0 8.0 0.00 0.00 0.00 59 1019.5
20260902121803 83 136 3.0 9.0 0.00 0.00 0.00 59 1019.6
20260902120903 82 188 3.0 7.0 0.00 0.00 0.00 60 1019.8
20260902120219 82 187 2.0 6.0 0.00 0.00 0.00 61 1019.8
20260902115618 83 142 2.0 5.0 0.00 0.00 0.00 61 1019.9
20260902114504 82 173 3.0 7.0 0.00 0.00 0.00 62 1020.0
20260902113817 81 130 4.0 8.0 0.00 0.00 0.00 64 1020.1
20260902112703 80 80 4.0 7.0 0.00 0.00 0.00 62 1020.1
20260902111803 81 110 3.0 8.0 0.00 0.00 0.00 62 1020.3
20260902110903 82 129 1.0 7.0 0.00 0.00 0.00 61 1020.3
20260902110007 80 102 3.0 3.0 0.00 0.00 0.00 64 1020.4
20260902105403 80 109 4.0 7.0 0.00 0.00 0.00 65 1020.5
20260902104503 80 120 3.0 9.0 0.00 0.00 0.00 65 1020.7
20260902103603 80 137 2.0 5.0 0.00 0.00 0.00 64 1020.5
20260902102703 80 78 4.0 7.0 0.00 0.00 0.00 62 1020.6
20260902102017 79 98 4.0 8.0 0.00 0.00 0.00 62 1020.7
20260902100903 80 147 2.0 6.0 0.00 0.00 0.00 65 1020.8
20260902100218 80 119 2.0 4.0 0.00 0.00 0.00 63 1020.8
20260902095617 80 90 2.0 7.0 0.00 0.00 0.00 63 1020.8
20260902094504 79 98 2.0 4.0 0.00 0.00 0.00 66 1020.9
20260902093818 79 115 2.0 8.0 0.00 0.00 0.00 68 1021.0
20260902092703 78 67 2.0 5.0 0.00 0.00 0.00 67 1021.0
20260902091803 78 72 2.0 6.0 0.00 0.00 0.00 68 1020.9
20260902090903 78 96 3.0 5.0 0.00 0.00 0.00 69 1021.1
20260902090004 77 103 3.0 7.0 0.00 0.00 0.00 70 1021.1
20260902085403 77 109 3.0 8.0 0.00 0.00 0.00 70 1021.0
20260902084503 77 78 2.0 7.0 0.00 0.00 0.00 68 1020.9
20260902083604 77 78 2.0 6.0 0.00 0.00 0.00 69 1020.8
20260902082703 76 85 2.0 5.0 0.00 0.00 0.00 71 1020.8
20260902082016 76 358 3.0 5.0 0.00 0.00 0.00 71 1020.8
20260902080903 76 25 3.0 5.0 0.00 0.00 0.00 70 1020.8
20260902080003 76 2 3.0 7.0 0.00 0.00 0.00 73 1020.7
20260902075403 76 4 4.0 7.0 0.00 0.00 0.00 72 1020.7
20260902074718 75 15 3.0 7.0 0.00 0.00 0.00 72 1020.4
20260902073603 75 18 2.0 6.0 0.00 0.00 0.00 73 1020.5
20260902072703 75 14 3.0 4.0 0.00 0.00 0.00 74 1020.6
20260902071803 74 17 3.0 4.0 0.00 0.00 0.00 74 1020.7
20260902070903 74 16 3.0 6.0 0.00 0.00 0.00 75 1020.5
20260902070006 74 4 3.0 5.0 0.00 0.00 0.00 75 1020.5